User: anonymous   Login
Location: Cuzcurrita-R�o Tir�n
(42.5415°N, 2.9642°W)
Time: 17:41:00
(UTC+00:00)
Language:

DELTA 2 R/B (1) - Orbit

View from above orbital plane
View from above orbital plane
View from above satellite
View from above satellite

Ground track
Ground track

The orbit data is extracted from the following two-line orbital elements,

1 27665U 03005C   21163.32638980 -.00000025  00000-0  23898-4 0  9998
2 27665  39.5753 255.2214 0009186   8.3357  90.7007 14.28555014959204
Epoch (UTC): 12 June 2021 07:50:00
Eccentricity: 0.0009186
inclination: 39.5753°
perigee height: 790 km
apogee height: 803 km
right ascension of ascending node: 255.2214°
argument of perigee: 8.3357°
revolutions per day: 14.28555014
mean anomaly at epoch: 90.7007°
orbit number at epoch: 95920

The dashed part of the orbit path shows where the satellite is in the earth's shadow,  

DLR